Weather History for Valentine, NE

Change the Weather History Date:

Friday, May 24, 2013

  Actual Average Record
Temperature  
Mean Temperature 66 °F 60 °F  
Max Temperature 77 °F 73 °F 96 °F (1967)
Min Temperature 54 °F 47 °F 25 °F (2002)
Degree Days  
Heating Degree Days 0 6  
Month to date heating degree days 235 225  
Since 1 July heating degree days 6877 6908  
Cooling Degree Days 1 1  
Month to date cooling degree days 27 21  
Year to date cooling degree days 27 25  
Growing Degree Days 16 (Base 50)    
Moisture  
Dew Point 52 °F    
Average Humidity 67    
Maximum Humidity 84    
Minimum Humidity 50    
Precipitation  
Precipitation 0.00 in 0.11 in 1.56 in (1916)
Month to date precipitation 3.55 2.35  
Year to date precipitation 8.21 6.38  
Snow  
Snow 0.00 in 0.00 in 0.00 in ()
Month to date snowfall 2.0 0.1  
Since 1 July snowfall 54.0 33.3  
Snow Depth 0.00 in    
Sea Level Pressure  
Sea Level Pressure 30.00 in    
Wind  
Wind Speed 20 mph (SSE)    
Max Wind Speed 38 mph    
Max Gust Speed 47 mph    
Visibility 10 miles    
Events      
T = Trace of Precipitation, MM = Missing Value Source: NWS Daily Summary

Daily Weather History Graph

Daily Weather History Graph

Search for Another Location

Airport:

Trip Planner

Search our weather history database for the weather conditions in past years. The results will help you decide how hot, cold, wet, or windy it might be!

Date:

Astronomy

May. 24, 2013 Rise Set
Actual Time 6:11 AM CDT 9:07 PM CDT
Civil Twilight 5:37 AM CDT 9:41 PM CDT
Nautical Twilight 4:54 AM CDT 10:24 PM CDT
Astronomical Twilight 4:05 AM CDT 11:14 PM CDT
Moon 8:51 PM CDT (5/24) 5:46 AM CDT (5/24)
Length of Visible Light 16h 03m
Length of Day
14h 56m
Full, 100% of the Moon is Illuminated
May 24
Full
May 24
Full
May 31
Last Quarter
Jun 8
New
Jun 16
First Quarter

Hourly Weather History & Observations

Time (CDT) Temp. Dew Point Humidity Pressure Visibility Wind Dir Wind Speed Gust Speed Precip Events Conditions
12:52 AM 55.9 °F 43.0 °F 62% 30.12 in 10.0 mi SE 18.4 mph - N/A   Clear
1:52 AM 55.0 °F 45.0 °F 69% 30.11 in 10.0 mi SSE 15.0 mph 24.2 mph N/A   Clear
2:52 AM 55.9 °F 46.9 °F 72% 30.08 in 10.0 mi SSE 18.4 mph - N/A   Overcast
3:52 AM 55.0 °F 46.9 °F 74% 30.08 in 10.0 mi SSE 15.0 mph - N/A   Partly Cloudy
4:52 AM 54.0 °F 46.9 °F 77% 30.07 in 10.0 mi SE 13.8 mph 23.0 mph N/A   Mostly Cloudy
5:52 AM 55.9 °F 48.0 °F 75% 30.05 in 10.0 mi SSE 18.4 mph 24.2 mph N/A   Overcast
6:52 AM 55.9 °F 48.9 °F 77% 30.05 in 10.0 mi SSE 23.0 mph 29.9 mph N/A   Overcast
7:52 AM 57.0 °F 48.9 °F 74% 30.04 in 10.0 mi SSE 28.8 mph 38.0 mph N/A   Overcast
8:52 AM 57.9 °F 50.0 °F 75% 30.02 in 10.0 mi South 35.7 mph 42.6 mph N/A   Overcast
9:23 AM 59.0 °F 50.0 °F 72% 30.03 in 10.0 mi SSE 29.9 mph 41.4 mph N/A   Overcast
9:52 AM 59.0 °F 50.0 °F 72% 30.02 in 10.0 mi SSE 34.5 mph 42.6 mph N/A   Overcast
10:52 AM 59.0 °F 51.1 °F 75% 30.02 in 10.0 mi South 29.9 mph 40.3 mph N/A   Overcast
11:52 AM 61.0 °F 52.0 °F 72% 30.02 in 10.0 mi South 27.6 mph 35.7 mph N/A   Overcast
12:52 PM 64.0 °F 53.1 °F 67% 30.01 in 10.0 mi South 29.9 mph 35.7 mph N/A   Overcast
1:52 PM 68.0 °F 54.0 °F 61% 29.99 in 10.0 mi SSW 29.9 mph 36.8 mph N/A   Overcast
2:37 PM 69.8 °F 55.4 °F 60% 30.00 in 10.0 mi South 26.5 mph 36.8 mph N/A   Overcast
2:52 PM 68.0 °F 55.0 °F 63% 29.98 in 10.0 mi South 27.6 mph 33.4 mph N/A   Overcast
3:52 PM 72.0 °F 55.0 °F 55% 29.95 in 10.0 mi South 26.5 mph 34.5 mph N/A   Scattered Clouds
4:52 PM 73.9 °F 55.9 °F 53% 29.93 in 10.0 mi South 23.0 mph 29.9 mph N/A   Clear
5:52 PM 75.9 °F 55.9 °F 50% 29.90 in 10.0 mi South 20.7 mph 27.6 mph N/A   Partly Cloudy
6:52 PM 75.9 °F 57.0 °F 52% 29.88 in 10.0 mi South 17.3 mph 26.5 mph N/A   Clear
7:52 PM 75.9 °F 57.0 °F 52% 29.87 in 10.0 mi South 12.7 mph - N/A   Clear
8:52 PM 72.0 °F 57.9 °F 61% 29.91 in 10.0 mi South 11.5 mph - N/A   Clear
9:52 PM 66.9 °F 57.9 °F 73% 29.92 in 10.0 mi South 4.6 mph - N/A   Clear
10:52 PM 66.9 °F 59.0 °F 76% 29.94 in 10.0 mi SSE 11.5 mph - N/A   Clear
11:52 PM 64.0 °F 59.0 °F 84% 29.91 in 10.0 mi East 5.8 mph - N/A   Clear